Regional Weather Roundup
Issued by NWS

Home | Current Version | Previous Version | Graphics & Text | Print | Product List | Glossary On
Versions: 1 2 3 4 5 6 7 8 9 10 11 12 13 14 15 16 17 18 19 20 21 22 23 24 25 26 27 28 29 30 31 32 33 34 35 36 37 38 39 40 41 42 43 44 45 46 47 48 49 50
366
ASUS43 KFSD 300602
RWRSD

WEATHER ROUNDUP FOR SOUTH DAKOTA
NATIONAL WEATHER SERVICE SIOUX FALLS SD
100 AM CDT SUN APR 30 2017

NOTE: "FAIR" INDICATES FEW OR NO CLOUDS BELOW 12,000 FEET WITH NO
SIGNIFICANT WEATHER AND/OR OBSTRUCTIONS TO VISIBILITY.


SDZ001>005-009-010-012>017-300700-
NORTHWEST AND NORTH CENTRAL SOUTH DAKOTA

CITY           SKY/WX    TMP DP  RH WIND       PRES   REMARKS
BUFFALO          N/A     40  23  50 S5        30.10F
FAITH            N/A     38  27  64 S8        30.18S
MOBRIDGE       MOCLDY    41  22  46 CALM      30.18R
$$

SDZ012>016-024>037-041>051-057-063-072>074-300700-
SOUTHWEST AND SOUTH CENTRAL SOUTH DAKOTA

CITY           SKY/WX    TMP DP  RH WIND       PRES   REMARKS
RAPID CTY ARPT CLEAR     30  21  69 NW6       30.17F WCI  24
PIERRE         CLEAR     35  23  61 N6        30.17F
CUSTER         CLEAR     27  16  63 NW3       30.16F
ELLSWORTH AFB  CLEAR     37  21  52 W5        30.16F
PHILIP         PTCLDY    32  24  72 W5        30.19R WCI  27
PINE RIDGE     CLEAR     30  26  85 E5        30.16F WCI  25
SPEARFISH      FAIR      32  21  64 SW7       30.17F WCI  26
WINNER         FAIR      44  27  51 NE6       30.15F
$$

SDZ004>011-016>023-039-040-300700-
NORTHEAST SOUTH DAKOTA

CITY           SKY/WX    TMP DP  RH WIND       PRES   REMARKS
ABERDEEN       PTCLDY    40  27  59 CALM      30.20R
WATERTOWN      CLOUDY    45  24  43 E10       30.15F
SISSETON         N/A     43  32  65 CALM      30.18S
$$

SDZ017-020-022-023-036>040-048>070-300700-
SOUTHEAST SOUTH DAKOTA

CITY           SKY/WX    TMP DP  RH WIND       PRES   REMARKS
SIOUX FALLS    CLOUDY    46  28  49 N9        30.10F
HURON          CLOUDY    43  29  57 NE6       30.14F
CHAMBERLAIN    CLOUDY    46  28  49 N3        30.16F
MITCHELL       CLOUDY    47  28  47 NE8       30.14F
YANKTON        MOCLDY    46  25  42 N13       30.09F
$$

ABBREVIATIONS USED IN REMARKS
   TC - TEMPERATURE IN CELSIUS
  WCI - WIND CHILL INDEX
   HX - HEAT INDEX
  VSB - VISIBILITY





USA.gov is the U.S. government's official web portal to all federal, state and local government web resources and services.